Location: Unspecified
(51.6250°N, 0.8230°E)
Time: 13:01:12
(UTC+01:00)

ISS - Visible Passes

Search period start: 22 October 2019 00:00
Search period end: 31 October 2019 23:00
Orbit: 411 x 421 km, 51.6° (Epoch: 22 October)

Date Brightness Start Highest point End Pass type
(mag) Time Alt. Az. Time Alt. Az. Time Alt. Az.
25 Oct -1.0 06:36:17 10° S 06:38:38 18° SE 06:40:59 10° E visible
26 Oct -0.8 05:48:52 10° SSE 05:50:15 12° SE 05:51:39 10° ESE visible
27 Oct -2.2 05:34:46 10° SW 05:37:50 33° SSE 05:40:55 10° E visible
28 Oct -1.7 04:47:33 16° S 04:49:21 24° SSE 04:52:08 10° E visible
29 Oct -1.2 04:01:15 16° SE 04:01:15 16° SE 04:03:08 10° E visible
29 Oct -3.2 05:34:10 12° WSW 05:37:08 57° SSE 05:40:27 10° E visible
30 Oct -2.9 04:47:44 35° SSW 04:48:33 43° SSE 04:51:47 10° E visible
31 Oct -1.5 04:01:14 24° ESE 04:01:14 24° ESE 04:03:02 10° E visible
31 Oct -3.7 05:34:08 18° WSW 05:36:30 82° S 05:39:53 10° E visible
